TimeMST,TemperatureF,Dew PointF,Humidity,Sea Level PressureIn,VisibilityMPH,Wind Direction,Wind SpeedMPH,Gust SpeedMPH,PrecipitationIn,Events,Conditions,WindDirDegrees,DateUTC
12:15 AM,32.0,-16.6,12,30.29,10.0,West,13.8,21.9,N/A,,Clear,260,2014-01-21 07:15:00
12:35 AM,32.0,-14.8,13,30.29,10.0,WSW,12.7,-,N/A,,Clear,250,2014-01-21 07:35:00
12:55 AM,30.2,-13.0,15,30.29,10.0,WSW,12.7,-,N/A,,Clear,250,2014-01-21 07:55:00
1:15 AM,30.2,-13.0,15,30.28,10.0,WSW,15.0,-,N/A,,Clear,250,2014-01-21 08:15:00
1:35 AM,28.4,-14.8,15,-9999,10.0,WSW,12.7,-,N/A,,Clear,250,2014-01-21 08:35:00
1:55 AM,30.2,-16.6,13,-9999,10.0,WSW,12.7,-,N/A,,Clear,250,2014-01-21 08:55:00
2:15 AM,32.0,-18.4,11,-9999,10.0,West,10.4,-,N/A,,Clear,270,2014-01-21 09:15:00
2:35 AM,35.6,-23.8,7,-9999,10.0,WNW,11.5,-,N/A,,Clear,290,2014-01-21 09:35:00
2:55 AM,35.6,-23.8,7,30.26,10.0,West,10.4,-,N/A,,Clear,280,2014-01-21 09:55:00
3:15 AM,35.6,-23.8,7,30.25,10.0,West,5.8,17.3,N/A,,Clear,270,2014-01-21 10:15:00
3:35 AM,35.6,-23.8,7,30.25,10.0,SW,3.5,-,N/A,,Clear,230,2014-01-21 10:35:00
3:55 AM,35.6,-25.6,6,30.23,10.0,WNW,8.1,-,N/A,,Clear,290,2014-01-21 10:55:00
4:15 AM,37.4,-25.6,6,30.22,10.0,West,13.8,19.6,N/A,,Clear,270,2014-01-21 11:15:00
4:35 AM,41.0,-27.4,5,30.21,10.0,WNW,15.0,24.2,N/A,,Clear,290,2014-01-21 11:35:00
4:55 AM,41.0,-27.4,5,30.20,10.0,West,20.7,31.1,N/A,,Clear,280,2014-01-21 11:55:00
5:15 AM,41.0,-27.4,5,30.19,10.0,West,18.4,33.4,N/A,,Clear,270,2014-01-21 12:15:00
5:35 AM,39.2,-27.4,5,30.19,10.0,West,17.3,25.3,N/A,,Clear,270,2014-01-21 12:35:00
5:55 AM,39.2,-27.4,5,30.19,10.0,West,16.1,28.8,N/A,,Clear,270,2014-01-21 12:55:00
6:15 AM,39.2,-27.4,5,30.19,10.0,West,12.7,24.2,N/A,,Clear,280,2014-01-21 13:15:00
6:35 AM,39.2,-25.6,6,30.20,10.0,WNW,12.7,21.9,N/A,,Clear,300,2014-01-21 13:35:00
6:55 AM,37.4,-25.6,6,30.21,10.0,NW,6.9,16.1,N/A,,Clear,320,2014-01-21 13:55:00
7:15 AM,35.6,-20.2,8,30.21,10.0,NNW,13.8,20.7,N/A,,Clear,340,2014-01-21 14:15:00
7:35 AM,39.2,-27.4,5,30.21,10.0,WNW,10.4,20.7,N/A,,Clear,290,2014-01-21 14:35:00
7:55 AM,39.2,-25.6,6,30.23,10.0,Calm,Calm,-,N/A,,Clear,0,2014-01-21 14:55:00
8:15 AM,37.4,-22.0,7,30.22,10.0,Calm,Calm,-,N/A,,Clear,0,2014-01-21 15:15:00
8:35 AM,37.4,-18.4,9,30.22,10.0,SSW,3.5,-,N/A,,Clear,210,2014-01-21 15:35:00
8:55 AM,35.6,-7.6,16,30.21,10.0,SW,8.1,-,N/A,,Clear,220,2014-01-21 15:55:00
9:15 AM,33.8,-4.0,20,30.21,10.0,WSW,10.4,-,N/A,,Clear,240,2014-01-21 16:15:00
9:35 AM,33.8,-2.2,22,30.21,10.0,WSW,10.4,-,N/A,,Clear,240,2014-01-21 16:35:00
9:55 AM,33.8,-0.4,23,30.21,10.0,West,10.4,-,N/A,,Clear,260,2014-01-21 16:55:00
10:15 AM,37.4,-5.8,16,30.23,10.0,NE,3.5,-,N/A,,Clear,40,2014-01-21 17:15:00
10:35 AM,39.2,-13.0,10,30.23,10.0,NNE,4.6,-,N/A,,Clear,30,2014-01-21 17:35:00
10:55 AM,41.0,-16.6,8,30.23,10.0,Calm,Calm,-,N/A,,Clear,0,2014-01-21 17:55:00
11:15 AM,42.8,-14.8,8,30.22,10.0,Calm,Calm,-,N/A,,Clear,0,2014-01-21 18:15:00
11:35 AM,41.0,-4.0,15,30.21,10.0,SW,6.9,-,N/A,,Clear,220,2014-01-21 18:35:00
11:55 AM,41.0,-0.4,18,30.21,10.0,SW,4.6,-,N/A,,Clear,220,2014-01-21 18:55:00
12:15 PM,41.0,6.8,24,30.20,10.0,WSW,8.1,-,N/A,,Clear,240,2014-01-21 19:15:00
12:35 PM,42.8,5.0,21,30.19,10.0,WSW,6.9,-,N/A,,Clear,240,2014-01-21 19:35:00
12:55 PM,42.8,8.6,25,30.18,10.0,SW,6.9,-,N/A,,Clear,230,2014-01-21 19:55:00
1:15 PM,41.0,8.6,26,30.17,10.0,WSW,10.4,-,N/A,,Clear,240,2014-01-21 20:15:00
1:35 PM,41.0,8.6,26,30.17,10.0,WSW,10.4,-,N/A,,Clear,250,2014-01-21 20:35:00
1:55 PM,41.0,10.4,29,30.16,10.0,WSW,10.4,-,N/A,,Clear,250,2014-01-21 20:55:00
2:15 PM,41.0,10.4,29,30.15,10.0,WSW,9.2,-,N/A,,Clear,240,2014-01-21 21:15:00
2:35 PM,39.2,10.4,31,30.14,10.0,WSW,13.8,18.4,N/A,,Clear,250,2014-01-21 21:35:00
2:55 PM,41.0,10.4,29,30.14,10.0,WSW,11.5,-,N/A,,Clear,250,2014-01-21 21:55:00
3:15 PM,41.0,10.4,29,30.14,10.0,West,11.5,-,N/A,,Clear,260,2014-01-21 22:15:00
3:35 PM,41.0,10.4,29,30.14,10.0,West,9.2,-,N/A,,Clear,260,2014-01-21 22:35:00
3:55 PM,41.0,8.6,26,30.14,10.0,West,5.8,-,N/A,,Clear,260,2014-01-21 22:55:00
4:15 PM,41.0,10.4,29,30.15,10.0,WSW,3.5,-,N/A,,Clear,250,2014-01-21 23:15:00
4:35 PM,37.4,10.4,33,30.14,10.0,Calm,Calm,-,N/A,,Clear,0,2014-01-21 23:35:00
4:55 PM,37.4,10.4,33,30.15,10.0,WSW,5.8,-,N/A,,Clear,250,2014-01-21 23:55:00
5:15 PM,35.6,10.4,35,30.15,10.0,West,6.9,-,N/A,,Clear,260,2014-01-22 00:15:00
5:35 PM,33.8,10.4,38,30.14,10.0,WSW,8.1,-,N/A,,Clear,250,2014-01-22 00:35:00
5:55 PM,33.8,8.6,35,30.14,10.0,Calm,Calm,-,N/A,,Clear,0,2014-01-22 00:55:00
6:15 PM,37.4,6.8,28,30.14,10.0,Calm,Calm,-,N/A,,Clear,0,2014-01-22 01:15:00
6:35 PM,37.4,5.0,26,30.14,10.0,Calm,Calm,-,N/A,,Clear,0,2014-01-22 01:35:00
6:55 PM,35.6,5.0,28,30.14,10.0,Calm,Calm,-,N/A,,Clear,0,2014-01-22 01:55:00
7:15 PM,35.6,5.0,28,30.14,10.0,Calm,Calm,-,N/A,,Clear,0,2014-01-22 02:15:00
7:35 PM,35.6,5.0,28,30.14,10.0,ENE,3.5,-,N/A,,Clear,70,2014-01-22 02:35:00
7:55 PM,33.8,5.0,30,30.14,10.0,NNE,3.5,-,N/A,,Clear,30,2014-01-22 02:55:00
8:15 PM,33.8,5.0,30,30.14,10.0,Calm,Calm,-,N/A,,Clear,0,2014-01-22 03:15:00
8:35 PM,32.0,5.0,32,30.13,10.0,North,3.5,-,N/A,,Clear,350,2014-01-22 03:35:00
8:55 PM,32.0,5.0,32,30.13,10.0,North,4.6,-,N/A,,Clear,360,2014-01-22 03:55:00
9:15 PM,33.8,5.0,30,30.13,10.0,Calm,Calm,-,N/A,,Clear,0,2014-01-22 04:15:00
9:35 PM,32.0,5.0,32,30.12,10.0,NNW,4.6,-,N/A,,Clear,330,2014-01-22 04:35:00
9:55 PM,32.0,5.0,32,30.12,10.0,North,3.5,-,N/A,,Clear,350,2014-01-22 04:55:00
10:15 PM,32.0,5.0,32,30.12,10.0,North,4.6,-,N/A,,Clear,360,2014-01-22 05:15:00
10:35 PM,32.0,5.0,32,30.12,10.0,North,6.9,-,N/A,,Clear,360,2014-01-22 05:35:00
10:55 PM,32.0,5.0,32,30.12,10.0,North,5.8,-,N/A,,Clear,350,2014-01-22 05:55:00
11:15 PM,32.0,3.2,30,30.13,10.0,NW,5.8,-,N/A,,Clear,320,2014-01-22 06:15:00
11:35 PM,32.0,5.0,32,30.12,10.0,NNW,3.5,-,N/A,,Clear,330,2014-01-22 06:35:00
11:55 PM,32.0,5.0,32,30.12,10.0,WSW,3.5,-,N/A,,Clear,240,2014-01-22 06:55:00